Weather History for Franklin, NC

Change the Weather History Date:

Tuesday, January 23, 2007

  Actual Average (KTOC) Record (KTOC)
Temperature  
Mean Temperature 36 °F -  
Max Temperature 42 °F 52 °F 42 °F (2014)
Min Temperature 30 °F 32 °F 21 °F (2014)
Degree Days  
Heating Degree Days 29    
Moisture  
Dew Point 28 °F    
Average Humidity 78    
Maximum Humidity 100    
Minimum Humidity 53    
Precipitation  
Precipitation 0.00 in - - ()
Sea Level Pressure  
Sea Level Pressure 30.00 in    
Wind  
Wind Speed 4 mph (NNW)    
Max Wind Speed 8 mph    
Max Gust Speed 16 mph    
Visibility 10 miles    
Events      
Averages and records for this station are not official NWS values.
T = Trace of Precipitation, MM = Missing Value Source: NWS Daily Summary

Daily Weather History Graph

Daily Weather History Graph

Search for Another Location

Airport:

Trip Planner

Search our weather history database for the weather conditions in past years. The results will help you decide how hot, cold, wet, or windy it might be!

Date:

Astronomy

Jan. 23, 2007 Rise Set
Actual Time 7:38 AM EST 5:52 PM EST
Civil Twilight 7:11 AM EST 6:19 PM EST
Nautical Twilight 6:40 AM EST 6:50 PM EST
Astronomical Twilight 6:10 AM EST 7:20 PM EST
Moon 10:26 AM EST (1/23) 11:12 PM EST (1/23)
Length of Visible Light 11h 08m
Length of Day
10h 13m
Waxing Crescent, 25% of the Moon is Illuminated
Jan 23
Waxing Crescent
Jan 25
First Quarter
Feb 2
Full
Feb 10
Last Quarter
Feb 17
New

Hourly Weather History & Observations

Time (EST) Temp. Windchill Dew Point Humidity Pressure Visibility Wind Dir Wind Speed Gust Speed Precip Events Conditions
12:00 AM 35.6 °F 29.2 °F 30.2 °F 81% 29.97 in 10.0 mi NNW 8.1 mph - N/A   Overcast
12:20 AM 35.6 °F 32.8 °F 30.2 °F 81% 29.97 in 10.0 mi WNW 3.5 mph - N/A   Overcast
12:40 AM 35.6 °F 30.7 °F 30.2 °F 81% 29.97 in 10.0 mi NNW 5.8 mph - N/A   Overcast
1:00 AM 33.8 °F 27.0 °F 30.2 °F 87% 29.96 in 10.0 mi WNW 8.1 mph 16.1 mph N/A   Mostly Cloudy
1:20 AM 33.8 °F 29.6 °F 30.2 °F 87% 29.96 in 10.0 mi NNW 4.6 mph - N/A   Mostly Cloudy
1:40 AM 33.8 °F 27.0 °F 28.4 °F 81% 29.96 in 10.0 mi NW 8.1 mph - N/A   Mostly Cloudy
2:00 AM 33.8 °F 28.6 °F 28.4 °F 81% 29.97 in 10.0 mi NNW 5.8 mph - N/A   Scattered Clouds
2:20 AM 33.8 °F 30.8 °F 28.4 °F 81% 29.97 in 10.0 mi NW 3.5 mph - N/A   Clear
3:00 AM 33.8 °F 28.6 °F 28.4 °F 81% 29.97 in 10.0 mi NNW 5.8 mph - N/A   Clear
3:20 AM 32.0 °F 27.5 °F 28.4 °F 87% 29.96 in 10.0 mi NW 4.6 mph - N/A   Clear
3:40 AM 32.0 °F 25.6 °F 28.4 °F 87% 29.97 in 10.0 mi NW 6.9 mph - N/A   Clear
4:00 AM 32.0 °F 24.8 °F 26.6 °F 80% 29.97 in 10.0 mi NNW 8.1 mph - N/A   Clear
4:20 AM 32.0 °F 24.8 °F 26.6 °F 80% 29.96 in 10.0 mi NNE 8.1 mph - N/A   Clear
4:40 AM 32.0 °F 26.4 °F 26.6 °F 80% 29.96 in 10.0 mi North 5.8 mph - N/A   Clear
5:00 AM 32.0 °F 28.7 °F 26.6 °F 80% 29.96 in 10.0 mi NE 3.5 mph - N/A   Clear
5:20 AM 32.0 °F 28.7 °F 26.6 °F 80% 29.96 in 10.0 mi ENE 3.5 mph - N/A   Clear
5:40 AM 32.0 °F 28.7 °F 26.6 °F 80% 29.97 in 10.0 mi NNE 3.5 mph - N/A   Clear
6:00 AM 32.0 °F - 26.6 °F 80% 29.97 in 10.0 mi Calm Calm - N/A   Clear
6:20 AM 32.0 °F - 26.6 °F 80% 29.98 in 10.0 mi Calm Calm - N/A   Clear
6:40 AM 32.0 °F - 26.6 °F 80% 29.99 in 10.0 mi Calm Calm - N/A   Clear
7:00 AM 32.0 °F - 26.6 °F 80% 30.00 in 10.0 mi Calm Calm - N/A   Clear
7:20 AM 32.0 °F - 26.6 °F 80% 30.01 in 10.0 mi Calm Calm - N/A   Clear
8:00 AM 32.0 °F - 26.6 °F 80% 30.03 in 10.0 mi Calm Calm - N/A   Clear
8:20 AM 32.0 °F - 26.6 °F 80% 30.04 in 10.0 mi Calm Calm - N/A   Clear
8:40 AM 32.0 °F 28.7 °F 26.6 °F 80% 30.04 in 10.0 mi North 3.5 mph - N/A   Clear
9:00 AM 32.0 °F 28.7 °F 26.6 °F 80% 30.04 in 10.0 mi NNW 3.5 mph - N/A   Clear
9:20 AM 32.0 °F 28.7 °F 26.6 °F 80% 30.05 in 10.0 mi NNW 3.5 mph - N/A   Clear
9:40 AM 32.0 °F 25.6 °F 26.6 °F 80% 30.06 in 10.0 mi North 6.9 mph - N/A   Clear
10:00 AM 32.0 °F - 26.6 °F 80% 30.06 in 10.0 mi Calm Calm - N/A   Clear
10:20 AM 33.8 °F 30.8 °F 26.6 °F 75% 30.07 in 10.0 mi NW 3.5 mph - N/A   Clear
10:40 AM 33.8 °F 28.6 °F 26.6 °F 75% 30.08 in 10.0 mi WNW 5.8 mph - N/A   Clear
11:00 AM 33.8 °F 29.6 °F 26.6 °F 75% 30.07 in 10.0 mi NNW 4.6 mph - N/A   Clear
11:20 AM 35.6 °F 32.8 °F 28.4 °F 75% 30.06 in 10.0 mi NW 3.5 mph - N/A   Clear
11:40 AM 35.6 °F 31.7 °F 26.6 °F 70% 30.05 in 10.0 mi WNW 4.6 mph - N/A   Clear
12:00 PM 37.4 °F - 26.6 °F 65% 30.04 in 10.0 mi Calm Calm - N/A   Clear
12:20 PM 37.4 °F - 26.6 °F 65% 30.03 in 10.0 mi Calm Calm - N/A   Clear
12:40 PM 37.4 °F - 28.4 °F 70% 30.03 in 10.0 mi Calm Calm - N/A   Clear
1:00 PM 37.4 °F - 28.4 °F 70% 30.02 in 10.0 mi Calm Calm - N/A   Clear
1:20 PM 39.2 °F 35.0 °F 28.4 °F 65% 30.00 in 10.0 mi West 5.8 mph - N/A   Clear
1:40 PM 41.0 °F 39.0 °F 30.2 °F 65% 30.00 in 10.0 mi WNW 3.5 mph - N/A   Clear
2:00 PM 41.0 °F 37.1 °F 28.4 °F 61% 29.98 in 10.0 mi NW 5.8 mph - N/A   Clear
2:20 PM 41.0 °F - 28.4 °F 61% 29.98 in 10.0 mi Calm Calm - N/A   Clear
2:40 PM 41.0 °F 37.1 °F 28.4 °F 61% 29.97 in 10.0 mi West 5.8 mph - N/A   Clear
3:00 PM 41.0 °F - 28.4 °F 61% 29.97 in 10.0 mi Calm Calm - N/A   Clear
3:20 PM 41.0 °F 38.0 °F 26.6 °F 57% 29.97 in 10.0 mi NNW 4.6 mph - N/A   Clear
4:00 PM 42.8 °F - 26.6 °F 53% 29.97 in 10.0 mi Calm Calm - N/A   Clear
4:20 PM 42.8 °F 41.1 °F 26.6 °F 53% 29.97 in 10.0 mi NW 3.5 mph - N/A   Clear
5:00 PM 41.0 °F - 28.4 °F 61% 29.98 in 10.0 mi Calm Calm - N/A   Clear
5:20 PM 41.0 °F - 28.4 °F 61% 29.97 in 10.0 mi Calm Calm - N/A   Clear
5:40 PM 39.2 °F - 32.0 °F 75% 29.97 in 10.0 mi Calm Calm - N/A   Clear
6:00 PM 35.6 °F - 32.0 °F 87% 29.99 in 10.0 mi Calm Calm - N/A   Clear
6:20 PM 35.6 °F - 30.2 °F 81% 29.99 in 10.0 mi Calm Calm - N/A   Clear
6:40 PM 33.8 °F - 32.0 °F 93% 30.00 in 10.0 mi Calm Calm - N/A   Clear
7:00 PM 33.8 °F - 32.0 °F 93% 30.01 in 10.0 mi Calm Calm - N/A   Clear
7:20 PM 32.0 °F - 30.2 °F 93% 30.01 in 10.0 mi Calm Calm - N/A   Clear
7:40 PM 32.0 °F - 30.2 °F 93% 30.01 in 10.0 mi Calm Calm - N/A   Clear
8:00 PM 30.2 °F - 28.4 °F 93% 30.01 in 10.0 mi Calm Calm - N/A   Clear
8:20 PM 30.2 °F - 30.2 °F 100% 30.01 in 10.0 mi Calm Calm - N/A   Clear
8:40 PM 30.2 °F - 28.4 °F 93% 30.01 in 10.0 mi Calm Calm - N/A   Clear
9:00 PM 30.2 °F - 28.4 °F 93% 30.01 in 10.0 mi Calm Calm - N/A   Clear
9:20 PM 30.2 °F - 28.4 °F 93% 30.02 in 10.0 mi Calm Calm - N/A   Clear
9:40 PM 30.2 °F - 28.4 °F 93% 30.03 in 10.0 mi Calm Calm - N/A   Clear
10:00 PM 28.4 °F - 28.4 °F 100% 30.02 in 10.0 mi Calm Calm - N/A   Clear
10:20 PM 28.4 °F - 28.4 °F 100% 30.02 in 10.0 mi Calm Calm - N/A   Clear
10:40 PM 28.4 °F - 28.4 °F 100% 30.02 in 10.0 mi Calm Calm - N/A   Clear
11:00 PM 28.4 °F - 28.4 °F 100% 30.02 in 10.0 mi Calm Calm - N/A   Clear
11:20 PM 28.4 °F - 26.6 °F 93% 30.01 in 10.0 mi Calm Calm - N/A   Clear
11:40 PM 26.6 °F - 26.6 °F 100% 30.01 in 10.0 mi Calm Calm - N/A   Clear